This is the latest recevied weather packets stored in our database for station/object NC4M. If no packets are shown the sender has not sent any weather packets the latest 10 day(s).
| Time | Temp. | Humidity | Pressure | Rain* | Wind** | Luminosity | Snow |
|---|---|---|---|---|---|---|---|
| 1787578621 | 18.89° C | 86% | 1018.9 hPa | 0 mm | - | 102 W/m² | - |
| 1787578321 | 18.89° C | 87% | 1019 hPa | 0 mm | - | 81 W/m² | - |
| 1787578016 | 18.89° C | 87% | 1019 hPa | 0 mm | - | 71 W/m² | - |
| 1787577711 | 18.33° C | 88% | 1018.9 hPa | 0 mm | - | 65 W/m² | - |
| 1787577407 | 18.33° C | 89% | 1018.6 hPa | 0 mm | - | 82 W/m² | - |
| 1787577103 | 18.33° C | 90% | 1018.5 hPa | 0 mm | - | 47 W/m² | - |
| 1787576799 | 17.78° C | 90% | 1018.6 hPa | 0 mm | - | 30 W/m² | - |
| 1787576494 | 17.78° C | 91% | 1018.5 hPa | 0 mm | - | 40 W/m² | - |
| 1787576190 | 17.78° C | 91% | 1018.6 hPa | 0 mm | - | 46 W/m² | - |
| 1787575885 | 17.78° C | 91% | 1018.7 hPa | 0 mm | - | 39 W/m² | - |
| 1787575581 | 17.78° C | 91% | 1018.5 hPa | 0 mm | - | 30 W/m² | - |
| 1787575275 | 17.78° C | 91% | 1018.6 hPa | 0 mm | - | 26 W/m² | - |
| 1787574970 | 17.78° C | 91% | 1018.2 hPa | 0 mm | - | 22 W/m² | - |
| 1787574666 | 17.78° C | 92% | 1018.3 hPa | 0 mm | - | 24 W/m² | - |
| 1787574361 | 17.78° C | 92% | 1018.2 hPa | 0 mm | - | 19 W/m² | - |
| 1787574060 | 17.22° C | 91% | 1018.3 hPa | 0 mm | - | 17 W/m² | - |
| 1787573756 | 17.78° C | 92% | 1018.2 hPa | 0 mm | - | 15 W/m² | - |
| 1787573455 | 17.78° C | 91% | 1018.5 hPa | 0 mm | - | 12 W/m² | - |
| 1787573151 | 17.78° C | 91% | 1018.5 hPa | 0 mm | - | 12 W/m² | - |
| 1787572848 | 17.22° C | 91% | 1018.3 hPa | 0 mm | - | 11 W/m² | - |
| 1787572543 | 17.22° C | 92% | 1018.4 hPa | 0 mm | - | 10 W/m² | - |
| 1787572242 | 17.22° C | 92% | 1018.3 hPa | 0 mm | - | 7 W/m² | - |
| 1787571937 | 17.22° C | 92% | 1018.7 hPa | 0 mm | - | 5 W/m² | - |
| 1787571637 | 17.22° C | 92% | 1018.4 hPa | 0 mm | - | 4 W/m² | - |
| 1787571336 | 17.22° C | 92% | 1018.3 hPa | 0 mm | - | 3 W/m² | - |
* Rain latest hour (hover to see other rain measurements)
** Current wind speed in m/s (hover to see current wind gust speed)